{"data":{"norad_id":58631,"intl_designator":"2023-203P","name":"STARLINK-31064","alt_names":[],"object_type":"PAYLOAD","status":"ACTIVE","operator":null,"country":"US","launch_date":"2023-12-23","launch_site_code":"AFETR","launch_vehicle":null,"mission":null,"orbit_class":"UNKNOWN","rcs_meters":null,"size_class":null,"mass_kg":null,"dimensions":null,"purposes":["comms"],"wikipedia_slug":null,"has_3d_model":false,"image_url":null,"decayed_at":null,"tle_current":{"epoch":"2026-05-24T21:45:45.880992Z","epoch_age_seconds":87057,"freshness":"FRESH","line1":"1 58631U 23203P   26144.90678103  .00000466  00000+0  26434-4 0  9992","line2":"2 58631  43.0052   0.4533 0000799 278.0315  82.0446 15.27580937136343","mean_motion":15.27580937,"eccentricity":7.99e-5,"inclination_deg":43.0052,"raan_deg":0.4533,"arg_perigee_deg":278.0315,"mean_anomaly_deg":82.0446,"bstar":2.6434e-5,"rev_number":13634,"period_min":94.266690891548,"perigee_km":482.49808178111,"apogee_km":483.5944988709,"semimajor_km":6861.183290326,"source":"CELESTRAK","updated_at":"2026-05-25T13:38:18.707673Z"}}}